Regional Weather Roundup
Issued by NWS Kansas City/Pleasant Hill, MO

Home | Current Version | Previous Version | Text Only | Print | Product List | Glossary On
Versions: 1 2 3 4 5 6 7 8 9 10 11 12 13 14 15 16 17 18 19 20 21 22 23 24 25 26 27 28 29 30 31 32 33 34 35 36 37 38 39 40 41 42 43 44 45 46 47 48 49 50
000
ASUS43 KEAX 290604
RWREAX

WEATHER ROUNDUP FOR EASTERN KANSAS AND NORTHWEST MISSOURI
NATIONAL WEATHER SERVICE KANSAS CITY/PLEASANT HILL MO
100 AM CDT FRI MAY 29 2015

KSZ040-057-103>105-MOZ028-029-037-043-290700-
...KANSAS CITY METROPOLITAN AREA...

CITY           SKY/WX    TMP DP  RH WIND       PRES   REMARKS
K.C. INTL      MOCLDY    64  63  96 SE9       29.97F
6HR MIN TEMP:  64; 6HR MAX TEMP:  72;

K.C. DOWNTOWN  MOCLDY    67  62  84 SE7       29.97F
6HR MIN TEMP:  67; 6HR MAX TEMP:  74;

LEES SUMMIT    MOCLDY    64  61  90 SE5       29.99F
6HR MIN TEMP:  64; 6HR MAX TEMP:  71;

OLATHE - IXD   MOCLDY    64  63  96 SE9       29.97F
6HR MIN TEMP:  64; 6HR MAX TEMP:  71;

OLATHE - OJC   MOCLDY    64  63  96 SE7       29.97F
6HR MIN TEMP:  64; 6HR MAX TEMP:  71;

LAWRENCE       MOCLDY    65  63  93 SE8       29.96F

$$

MOZ001>008-011>017-020>025-030>033-038>040-044>046-053-054-290700-
...NORTHERN AND CENTRAL MISSOURI...

CITY           SKY/WX    TMP DP  RH WIND       PRES   REMARKS
ST. JOSEPH     PTCLDY    66  64  93 S9        29.97S
6HR MIN TEMP:  66; 6HR MAX TEMP:  74;

MOSBY          PTCLDY    64  64 100 CALM      29.99F
WARRENSBURG    CLOUDY    64  63  94 CALM      29.99F
WHITEMAN AFB   MOCLDY    65  65  97 S3        29.98F
6HR MIN TEMP:  65; 6HR MAX TEMP:  69; 6HR PCP:  0.01;

CLINTON        CLOUDY    66  66 100 E3        29.99F
SEDALIA        CLOUDY    67  65  93 SE5       30.00F
6HR MIN TEMP:  67; 6HR MAX TEMP:  71;

WARSAW         NOT AVBL
CHILLICOTHE      N/A     67  65  93 S3        29.99F
6HR MIN TEMP:  67; 6HR MAX TEMP:  71;

KIRKSVILLE     CLOUDY    65  64  97 SE5       30.00F
6HR MIN TEMP:  65; 6HR MAX TEMP:  66; 6HR PCP:  0.01;


$$

MOZ041-047>049-056>058-063>065-088>090-097-290700-
...EASTERN AND SOUTHERN MISSOURI...

CITY           SKY/WX    TMP DP  RH WIND       PRES   REMARKS
ST. LOUIS INTL MOCLDY    74  64  71 S10       30.05S
6HR MIN TEMP:  74; 6HR MAX TEMP:  82;

SPIRIT OF STL  MOCLDY   N/A N/A N/A CALM      30.03S
COLUMBIA       CLOUDY    67  65  93 SE16      29.99F
JEFFERSON CITY CLOUDY    68  64  87 SE13      30.00F
ROLLA          CLOUDY    68  67  96 S9        30.01F
OSAGE BEACH    MOCLDY    64  63  94 S5        30.01F
SPRINGFIELD    MOCLDY    67  63  87 S10       30.02F
BRANSON        CLOUDY    66  63  88 CALM      30.05F
JOPLIN         MOCLDY    69  65  86 SE10      29.97F
WEST PLAINS    CLOUDY    69  63  81 S7        30.07F

$$

IAZ060-094-KSZ022-034>040-054-083-096-NEZ052-066-093-290700-
...KANSAS...SOUTHEAST NEBRASKA AND IOWA...

CITY           SKY/WX    TMP DP  RH WIND       PRES   REMARKS
TOPEKA         MOCLDY    66  64  93 SE8       29.95F
6HR MIN TEMP:  66; 6HR MAX TEMP:  75;

MANHATTAN      CLOUDY    68  66  93 SW7       29.96S
EMPORIA        CLOUDY    66  65  96 SE7       29.94F
CHANUTE        CLOUDY    69  66  90 SE6       29.95F
WICHITA        TSTM      67  61  81 N12       29.94F
OMAHA          CLOUDY    68  63  84 S14       29.92S
LINCOLN        CLOUDY    68  64  87 S12       29.93R
FALLS CITY     MOCLDY    65  62  90 S8        29.94S
LAMONI         MOCLDY    67  63  87 S7        29.98F
DES MOINES     MOCLDY    65  62  90 S7        29.96S

$$




USA.gov is the U.S. government's official web portal to all federal, state and local government web resources and services.